SCP
0 0 0 0 0 0 0 0 0 0 0 0 0 0 0 0 0 0 0 0 0 0 0 0 0 0 0 0 0 0 0 0 0 0 0 0 0 0 0 0 0 0 0 0
0 0 0 0 0 0 0 0 0 0 0 0 0 0 0 0 0 0 0 0 0 0 0 0 0 0 0 0 0 0 0 0 0 0 0 0 0 0 0 0 0 0 0 0
0 0 0 0 0 0 0 0 0 0 0 0 0 0 0 0 0 0 0 0 0 0 0 0 0 0 0 0 0 0 0 0 0 0 0 0 0 0 0 0 0 0 0 0
0 0 0 0 0 0 0 0 0 0 0 0 0 0 0 0 0 0 0 0 0 0 0 0 0 0 0 0 0 0 0 0 0 0 0 0 0 0 0 0 0 0 0 0
0 0 0 0 0 0 0 0 0 0 0 0 0 0 0 0 0 0 0 0 0 0 0 0 0 0 0 0 0 0 0 0 0 0 0 0 0 0 0 0 0 0 0 0
0 0 0 0 0 0 0 0 0 0 0 0 0 0 0 0 0 0 0 0 0 0 0 0 0 0 0 0 0 0 0 0 0 0 0 0 0 0 0 0 0 0 0 0
0 0 0 0 0 0 0 0 0 0 0 0 0 0 0 0 0 0 0 0 0 0 0 0 0 0 0 0 0 0 0 0 0 0 0 0 0 0 0 0 0 0 0 0
0 0 0 0 0 0 0 0 0 0 0 0 0 0 0 0 0 0 -0 -0 0 0 0 0 0 0 0 0 0 0 0 0 0 0 0 0 0 0 0 0 0 0 0 0
0 0 0 0 0 0 0 0 0 0 0 0 0 0 0 0 -0 -0 -0 -0 0 0 0 0 0 0 0 0 0 0 0 0 0 0 0 0 0 0 0 0 0 0 0 0
0 0 0 0 0 0 0 0 0 0 0 0 0 0 0 0 -0 -0 -0 -0 -0 0 0 0 0 0 0 0 0 0 0 0 0 0 0 0 0 0 0 0 0 0 0 0
0 0 0 0 0 0 0 0 0 0 0 0 0 0 0 0 -0 -0 -0 -0 -0 0 0 0 0 0 0 0 0 0 0 0 0 0 0 0 0 0 0 0 0 0 0 0
0 0 0 0 0 0 0 0 0 0 0 0 0 0 0 0 -0 0 0 0 0 0 0 0 0 0 0 0 0 0 0 0 0 0 0 0 0 0 0 0 0 0 0 0
0 0 0 0 0 0 0 0 0 0 0 0 0 0 0 0 0 0 0 0 0 0 0 0 0 0 0 0 0 0 0 0 0 0 0 0 0 0 0 0 0 0 0 0
0 0 0 0 0 0 0 0 0 0 0 0 0 0 0 0 0 0 0 0 0 0 0 0 0 0 0 0 0 0 0 0 0 0 0 0 0 0 0 0 0 0 0 0
0 0 0 0 0 0 0 0 0 0 0 0 0 0 0 0 0 0 0 0 0 0 0 0 0 0 0 0 0 0 0 0 0 0 0 0 0 0 0 0 0 0 0 0
0 0 0 0 0 0 0 0 0 0 0 0 0 0 0 0 0 0 0 0 0 0 0 0 0 0 0 0 0 0 0 0 0 0 0 0 0 0 0 0 0 0 0 0
0 0 0 0 0 0 0 0 0 0 0 0 0 0 0 0 0 0 0 0 0 0 0 0 0 0 0 0 0 0 0 0 0 0 0 0 0 0 0 0 0 0 0 0
0 0 0 0 0 0 0 0 0 0 0 0 0 0 0 0 0 0 0 0 0 0 0 0 0 0 0 0 0 0 0 0 0 0 0 0 0 0 0 0 0 0 0 0
0 0 0 0 0 0 0 0 0 0 0 0 0 0 0 0 0 0 0 0 0 0 0 0 0 0 0 0 0 0 0 0 0 0 0 0 0 0 0 0 0 0 0 0
0 0 0 0 0 0 0 0 0 0 0 0 0 0 0 0 0 0 0 0 0 0 0 0 0 0 0 0 0 0 0 0 0 0 0 0 0 0 0 0 0 0 0 0
0 0 0 0 0 0 0 0 0 0 0 0 0 0 0 0 0 0 0 0 0 0 0 0 0 0 0 0 0 0 0 0 0 0 0 0 0 0 0 0 0 0 0 0
0 0 0 0 0 0 0 0 0 0 0 0 0 0 0 0 0 0 0 0 0 0 0 0 0 0 0 0 0 0 0 0 0 0 0 0 0 0 0 0 0 0 0 0
0 0 0 0 0 0 0 0 0 0 0 0 0 0 0 0 0 0 0 0 0 0 0 0 0 0 0 0 0 0 0 0 0 0 0 0 0 0 0 0 0 0 0 0
0 0 0 0 0 0 0 0 0 0 0 0 0 0 0 0 0 0 0 0 0 0 0 0 0 0 0 0 0 0 0 0 0 0 0 0 0 0 0 0 0 0 0 0
0 0 0 0 0 0 0 0 0 0 0 0 0 0 0 0 0 0 0 0 0 0 0 0 0 0 0 0 0 0 0 0 0 0 0 0 0 0 0 0 0 0 0 0
0 0 0 0 0 0 0 0 0 0 0 0 0 0 0 0 0 0 0 0 0 0 0 0 0 0 0 0 0 0 0 0 0 0 0 0 0 0 0 0 0 0 0 0
Wind_Speed
2 4 7 7 8 4 3 5 7 5 1 4 8 12 12 9 8 10 9 9 9 8 7 5 5 5 5 6 6 7 6 6 6 5 5 4 5 4 4 3 4 4 4 4
4 7 7 4 5 5 5 7 7 4 1 4 7 13 13 10 10 10 10 10 9 8 7 5 4 4 5 6 6 6 7 6 7 6 5 4 4 4 4 3 4 5 5 5
8 2 4 6 6 7 7 9 7 5 3 4 7 11 9 7 6 7 8 9 8 7 7 5 4 4 4 5 5 5 6 6 7 7 5 3 3 3 4 4 4 5 5 5
6 3 5 6 7 8 7 5 6 5 5 4 3 8 8 6 6 7 7 6 6 5 5 5 4 4 4 4 4 4 5 6 6 7 7 7 6 5 5 4 4 4 5 5
5 4 6 7 6 7 4 2 4 4 5 6 5 8 8 3 7 6 4 4 4 4 4 4 4 4 3 3 3 3 3 4 5 6 7 7 6 5 4 4 4 4 4 4
2 2 3 3 2 4 4 3 2 2 3 6 6 8 8 3 5 4 3 3 3 3 4 4 3 3 3 2 2 2 3 3 4 5 6 7 7 5 4 4 4 4 3 3
3 3 2 2 4 4 4 4 2 3 4 6 2 7 9 4 4 4 5 4 4 3 3 3 3 3 2 2 2 2 2 2 3 4 5 6 6 6 6 5 5 4 3 3
6 5 5 4 4 5 7 6 5 5 5 4 4 9 6 3 4 4 5 4 3 3 3 3 3 3 2 3 2 2 3 3 3 3 4 5 5 4 4 5 4 5 4 4
7 4 2 2 1 4 6 6 3 1 1 5 6 7 8 4 3 2 2 2 2 2 2 3 3 2 2 3 3 3 3 3 3 4 4 5 5 5 5 5 5 4 4 3
3 3 2 1 2 1 2 4 4 5 5 7 7 8 6 4 4 2 1 2 2 2 3 3 3 3 2 2 3 3 3 4 4 4 4 3 5 5 5 5 5 5 4 4
2 3 3 3 7 7 5 4 4 4 4 6 7 6 2 4 3 3 3 3 3 4 4 4 3 3 2 2 2 2 3 3 3 4 4 4 4 5 5 5 5 5 4 4
3 2 3 4 1 3 5 6 7 5 5 5 6 7 0 3 3 4 5 5 4 4 4 4 4 3 2 2 2 3 3 3 4 4 4 4 4 4 5 5 5 4 4 5
4 4 2 2 3 3 5 5 6 3 2 5 7 8 1 1 3 4 5 6 5 5 5 4 4 3 3 3 3 3 3 4 3 3 3 4 4 4 5 5 4 4 4 5
1 3 6 7 3 4 6 7 8 7 6 8 12 12 8 7 7 7 7 7 6 6 6 5 4 4 3 3 3 3 4 4 3 3 3 4 4 4 4 4 4 4 4 5
2 3 4 5 4 4 6 8 11 13 12 11 12 14 14 10 9 9 8 7 7 7 7 6 5 4 4 4 4 4 4 4 3 3 3 4 4 3 3 3 3 4 4 5
2 3 2 5 5 5 8 11 13 15 15 16 16 17 12 9 7 8 8 7 8 8 8 7 6 5 5 5 4 4 4 4 3 3 3 3 3 2 2 3 3 3 4 4
3 4 3 5 3 4 12 13 15 13 13 12 16 15 7 7 8 9 8 8 8 8 8 7 6 5 5 5 4 4 4 3 3 3 3 3 2 2 3 3 3 3 3 3
6 4 3 2 3 12 6 2 9 11 12 13 13 12 9 9 8 7 7 6 7 7 7 7 6 5 5 5 4 3 3 2 2 3 3 3 3 3 3 3 3 3 3 3
6 6 4 4 7 11 7 4 6 9 11 11 14 13 9 6 6 6 4 4 6 6 6 5 5 5 4 4 3 3 3 2 2 3 3 3 3 3 3 3 3 3 3 3
2 5 5 5 7 10 5 1 2 4 9 6 8 10 7 3 6 5 1 3 4 4 4 4 4 4 3 3 3 2 3 3 3 4 4 3 3 3 4 4 4 3 3 3
4 5 8 8 9 10 5 2 4 6 5 1 4 6 6 7 6 4 3 3 3 3 4 4 3 3 3 3 2 2 3 3 4 3 3 3 3 3 3 3 3 3 3 3
9 8 8 7 9 11 3 5 7 4 2 1 3 4 5 5 5 4 4 4 4 4 4 4 3 3 3 2 2 3 4 4 3 3 2 3 3 3 2 2 2 2 2 3
8 8 6 9 8 2 5 5 3 1 2 3 4 5 4 5 6 5 5 4 4 4 4 3 3 3 3 3 3 3 4 3 3 2 2 3 3 3 2 2 2 2 2 2
6 3 5 7 9 6 5 5 4 4 5 5 4 4 4 5 5 5 4 4 4 4 3 3 3 3 4 4 4 3 3 3 2 2 2 2 2 2 2 2 2 2 2 2
6 5 5 9 8 6 6 6 6 5 4 4 4 4 4 4 4 4 4 4 4 3 3 3 3 4 4 4 4 3 3 2 2 2 2 2 2 2 2 2 2 2 3 3
7 8 8 9 6 6 6 3 4 4 5 5 5 5 4 3 4 4 4 3 3 3 3 3 3 4 4 4 4 4 3 2 1 2 2 2 2 2 2 2 2 3 4 5
Wind_Direction
145 186 205 205 211 232 217 227 249 254 227 249 254 266 271 271 264 264 263 261 261 262 268 266 259 247 236 226 219 212 207 202 194 193 196 198 204 200 200 204 207 210 210 213
157 219 227 208 192 198 213 235 250 261 225 256 275 275 274 266 257 257 259 259 259 265 269 266 261 248 237 227 222 217 213 207 199 199 200 206 204 206 207 208 210 212 212 213
203 197 186 181 183 198 224 232 244 258 284 242 287 278 263 264 252 256 257 259 260 263 269 272 269 262 251 239 231 224 220 214 207 199 191 183 192 198 204 209 210 213 214 213
218 215 177 186 204 210 235 230 237 248 264 271 284 286 275 272 269 258 256 256 266 275 275 272 265 262 257 253 242 234 227 218 210 195 193 193 201 209 214 212 211 208 212 217
202 188 192 208 217 207 216 160 204 230 241 266 240 259 276 270 271 266 265 270 279 285 284 279 277 271 269 264 249 237 228 220 207 198 199 201 210 217 213 204 205 207 209 216
205 199 225 214 168 187 149 135 134 188 223 254 240 240 273 253 268 292 299 302 303 311 304 298 297 291 281 275 254 235 222 221 208 202 203 207 209 207 204 207 207 210 211 215
200 197 185 173 152 164 186 182 207 219 222 243 200 238 258 271 272 282 292 300 308 309 308 308 306 301 296 285 270 249 232 233 219 209 210 212 215 213 211 210 212 214 218 223
191 210 187 187 195 184 197 212 218 233 241 253 210 242 257 280 285 281 282 290 300 310 307 305 296 285 283 277 265 252 241 238 228 221 223 220 219 220 223 221 221 222 226 228
198 199 131 184 202 182 180 210 249 206 288 268 247 260 274 257 267 267 268 283 305 308 299 297 298 290 287 282 269 255 248 248 241 232 227 225 221 222 228 229 227 228 232 230
194 189 181 161 161 189 246 174 176 201 221 247 259 256 254 248 251 248 265 289 301 307 309 310 300 292 288 288 284 271 254 250 252 247 238 237 231 227 229 229 229 232 232 229
208 173 166 182 205 198 176 189 205 203 239 238 254 253 237 232 222 243 263 284 292 298 300 301 301 300 304 313 307 290 269 257 257 256 250 245 239 230 229 230 230 230 228 227
193 186 203 218 227 273 227 213 196 209 221 237 258 265 229 251 267 267 272 280 286 293 300 304 306 310 311 309 307 298 287 269 259 255 253 249 247 234 228 231 233 228 228 230
170 173 181 208 199 201 226 219 218 231 204 215 235 254 137 303 290 278 278 285 293 297 302 306 306 302 301 303 304 301 296 289 280 261 255 254 249 245 242 236 234 230 229 231
188 204 223 235 244 192 212 217 209 206 221 230 239 256 260 277 285 291 291 293 297 296 295 295 296 296 298 302 306 304 302 302 295 270 254 254 253 250 250 245 236 233 232 233
183 225 236 268 284 256 241 230 215 218 228 235 249 254 262 269 274 281 286 288 289 291 293 293 292 291 294 299 304 305 304 307 301 283 266 262 261 255 253 251 246 242 238 238
180 210 227 261 268 260 257 247 235 236 240 246 259 264 270 275 278 277 277 279 283 288 291 293 291 290 288 286 290 296 301 305 299 289 287 290 283 273 268 263 258 250 248 247
190 176 211 247 286 271 252 232 222 226 227 231 245 259 280 274 269 271 271 273 276 282 285 287 289 286 282 282 283 286 291 298 297 295 296 298 293 287 280 274 267 264 264 259
184 188 217 223 208 242 248 211 219 228 237 235 252 267 269 269 276 273 265 268 279 286 289 290 291 292 293 294 294 298 297 293 296 297 300 304 301 295 297 291 284 287 288 276
208 194 199 208 240 267 279 232 201 218 249 237 245 258 268 280 281 265 255 269 282 290 294 295 296 297 299 299 305 304 296 300 307 305 299 298 295 292 290 287 289 294 296 294
192 203 202 210 232 246 253 188 205 219 255 236 233 250 257 247 263 274 319 310 305 312 311 311 313 314 308 310 311 298 294 294 293 296 302 306 297 285 282 285 294 301 300 295
178 197 214 225 243 259 266 205 174 211 262 265 235 250 242 232 255 292 314 312 313 322 329 330 325 316 313 316 310 295 293 291 299 306 308 306 300 292 286 290 301 303 303 303
195 196 207 209 231 248 176 161 203 252 352 339 289 281 267 268 281 288 302 312 319 328 334 334 326 321 325 318 303 293 295 311 313 307 304 303 301 297 294 293 299 301 297 299
215 212 211 213 235 277 172 208 240 299 275 288 293 296 278 273 274 283 293 302 311 320 324 327 319 320 326 325 309 295 312 326 323 321 314 310 312 305 298 284 283 291 292 291
231 227 227 249 258 258 239 251 270 271 276 291 297 292 281 277 279 287 292 298 307 316 318 326 324 315 316 325 322 314 324 331 332 324 316 313 314 311 310 299 285 282 286 289
223 193 222 250 268 284 257 247 269 282 293 302 311 307 292 287 287 291 291 297 303 312 326 327 311 303 306 320 324 329 330 334 322 314 309 310 308 304 306 306 298 293 291 287
207 205 217 244 250 250 263 266 279 283 290 294 302 307 313 302 289 292 290 300 304 306 317 316 307 304 308 316 320 327 328 317 296 294 299 296 297 300 304 309 322 320 304 305